Current weather by "City, St" or "zip code"  
 
Advertise Here

Current Conditions: Grove, Grove Municipal Airport, OK

Overcast


50.0 F

Last Updated on Nov 23 2020, 8:55 pm CST
Humidity: 62%
Wind Speed: SE 9.2 G 16.1 mph
Barometer 30.11 in
Dewpoint: 37.4 F
Visibility: 10.00 mi
Precip: --
Heat Index: NA
Wind Chill: 46 F
Current conditions at:

Grove, Grove Municipal Airport, OK (KGMJ)

Lat: 36.60528 Lon: 94.73861

Local Radar Image active severe weather and emergency alerts image image weather storm and storm spotter reports image weather observation monitoring service image
Local
Radar
Active
Alerts
Storm Reports Obs
Monitoring

Sign-up For Email & Text Message Weather Alert Notification Services


Advertise Here

Observation History for Grove, Grove Municipal Airport, OK


Time Wind
(mph)
Vis
(mi)
Weather Precip (in) Temperature (F) Relative
Humidity
Wind
Chill
(F)
Heat
Index
(F)
Pressure
Air Dwpt altimeter
(in)
sea level
(mb)
Rmks
8:55 pm CST SE 9.2 G 16.1 10.00 Overcast -- 50.0 37.4 62% 46 NA 30.11 M
8:35 pm CST SE 9.2 10.00 Overcast -- 50.0 37.4 62% 46 NA 30.11 M
7:55 pm CST SE 5.8 10.00 Partly Cloudy -- 50.0 35.6 58% 48 NA 30.11 M
6:55 pm CST SE 3.5 10.00 Overcast -- 50.0 33.8 54% NA NA 30.13 M
5:55 pm CST SE 5.8 10.00 Fair -- 50.0 33.8 54% 48 NA 30.15 M
4:35 pm CST SE 5.8 10.00 Fair -- 54.0 32.0 44% 53 NA 30.15 M
1:55 pm CST SE 13.8 10.00 Mostly Cloudy -- 54.0 33.8 47% 50 NA 30.20 M
12:55 pm CST SE 6.9 10.00 Fair -- 54.0 35.6 51% 52 NA 30.25 M
11:55 am CST S 9.2 10.00 Partly Cloudy -- 52.0 33.8 50% 49 NA 30.30 M
10:55 am CST SE 10.4 10.00 Fair -- 50.0 37.4 62% 46 NA 30.33 M
9:55 am CST E 3.5 10.00 Fair -- 43.0 42.8 100% NA NA 30.36 M
8:55 am CST N 0.0 5.00 Fog/Mist -- 36.0 35.6 100% NA NA 30.37 M
7:55 am CST N 0.0 2.50 Fog/Mist -- 32.0 32.0 100% NA NA 30.36 M
6:55 am CST N 0.0 7.00 Fair -- 30.0 30.2 100% NA NA 30.35 M
5:55 am CST N 0.0 1.50 Fog/Mist -- 30.0 30.2 100% NA NA 30.35 M
4:55 am CST N 0.0 0.50 Freezing Fog -- 30.0 30.2 100% NA NA 30.35 M
3:55 am CST N 0.0 0.25 Freezing Fog -- 32.0 32.0 100% NA NA 30.36 M
2:55 am CST N 0.0 0.25 Freezing Fog -- 32.0 32.0 100% NA NA 30.38 M
1:55 am CST N 0.0 0.50 Fog -- 32.0 32.0 100% NA NA 30.38 M
12:55 am CST N 0.0 4.00 Fog/Mist -- 32.0 32.0 100% NA NA 30.39 M
11:55 pm CST N 0.0 1.50 Fog/Mist -- 32.0 32.0 100% NA NA 30.40 M
10:55 pm CST N 0.0 0.75 Fog/Mist -- 32.0 32.0 100% NA NA 30.40 M
9:55 pm CST N 0.0 5.00 Fog/Mist -- 34.0 33.8 100% NA NA 30.40 M

Regional Weather Observation


Monett, MO (KHFJ)

Overcast
46.0 F

Joplin, Joplin Regional Airport, MO (KJLN)

Overcast
52.0 F

Siloam Springs, Smith Field Airport, AR (KSLG)

Overcast
48.0 F

Claremore, Claremore Regional Airport, OK (KGCM)

Overcast
52.0 F

Northwest Arkansas Regional Airport, AR (KXNA)

A Few Clouds
47.0 F

Bentonville, Bentonville Municipal Airport/Louise M Thaden Field, AR (KVBT)

Fair
46.0 F